Location: Unspecified
(52.4292°N, 19.3359°E)
Time: 10:16:15
(UTC+02:00)

deb Explorer IX - Pass Details

Date: 28 May 2024
Orbit: 510 x 886 km, 38.7° (Epoch: 13 June)

Event Time Altitude Azimuth Distance (km) Brightness Sun altitude
Rises 22:13:22 0° 246° (WSW) 3,187 ? -9.3°
Reaches altitude 10° 22:16:50 10° 225° (SW) 2,175 ? -9.6°
Maximum altitude 22:19:45 16° 190° (S) 1,755 ? -9.9°
Enters shadow 22:21:41 13° 163° (SSE) 1,878 ? -10.0°
